International Skating Union - Official Site

Essent ISU World Cup Calgary
November 8-10, 2013

Draw | Lap Times | Index | World Cup

Referee: Dan  IMMERFALL  (USA)
Starter: Garth  LINDER  (USA)
StartTime: EndTime: Air Temp: Ice Temp: Humidity:
12:22 13:26 17.3℃ -7.5℃ 29
Result 5000m Men Division A
Rankings as of Nov 10 2013 7:25PM
Rank: No.: Name: Nation: Time: Behind: Points:
1 97 Sven  Kramer NED NED 6:04.46200m - 18.71 - (18.7)
600m - 47.44 - (28.7)
1000m - 1:16.20 - (28.7)
1400m - 1:45.13 - (28.9)
1800m - 2:13.50 - (28.3)
2200m - 2:42.18 - (28.6)
2600m - 3:10.93 - (28.7)
3000m - 3:39.89 - (28.9)
3400m - 4:08.63 - (28.7)
3800m - 4:37.26 - (28.6)
4200m - 5:05.93 - (28.6)
4600m - 5:35.09 - (29.1)
5000m - 6:04.46 - (29.3)
100
2 89 Jorrit  Bergsma NED NED 6:06.93200m - 19.35 - (19.3)
600m - 47.62 - (28.2)
1000m - 1:16.05 - (28.4)
1400m - 1:44.60 - (28.5)
1800m - 2:13.36 - (28.7)
2200m - 2:41.99 - (28.6)
2600m - 3:10.80 - (28.8)
3000m - 3:39.73 - (28.9)
3400m - 4:08.77 - (29.0)
3800m - 4:37.87 - (29.1)
4200m - 5:07.39 - (29.5)
4600m - 5:37.05 - (29.6)
5000m - 6:06.93 - (29.8)
2.47 80
3 86 Seung-Hoon  Lee KOR KOR 6:07.04200m - 19.24 - (19.2)
600m - 48.35 - (29.1)
1000m - 1:17.03 - (28.6)
1400m - 1:45.75 - (28.7)
1800m - 2:14.63 - (28.8)
2200m - 2:43.47 - (28.8)
2600m - 3:12.50 - (29.0)
3000m - 3:41.37 - (28.8)
3400m - 4:09.69 - (28.3)
3800m - 4:37.97 - (28.2)
4200m - 5:06.93 - (28.9)
4600m - 5:36.86 - (29.9)
5000m - 6:07.04 - (30.1)
2.58 70
4 91 Bob  de Jong NED NED 6:08.80200m - 19.92 - (19.9)
600m - 49.17 - (29.2)
1000m - 1:18.54 - (29.3)
1400m - 1:47.80 - (29.2)
1800m - 2:17.06 - (29.2)
2200m - 2:46.03 - (28.9)
2600m - 3:15.09 - (29.0)
3000m - 3:43.93 - (28.8)
3400m - 4:12.91 - (28.9)
3800m - 4:41.75 - (28.8)
4200m - 5:10.65 - (28.9)
4600m - 5:39.66 - (29.0)
5000m - 6:08.80 - (29.1)
4.34 60
5 105 Koen  Verweij NED NED 6:09.51200m - 18.12 - (18.1)
600m - 46.21 - (28.0)
1000m - 1:15.20 - (28.9)
1400m - 1:44.43 - (29.2)
1800m - 2:13.72 - (29.2)
2200m - 2:42.94 - (29.2)
2600m - 3:12.52 - (29.5)
3000m - 3:42.17 - (29.6)
3400m - 4:11.82 - (29.6)
3800m - 4:41.61 - (29.7)
4200m - 5:11.42 - (29.8)
4600m - 5:40.25 - (28.8)
5000m - 6:09.51 - (29.2)
5.05 50
6 90 Jan  Blokhuijsen NED NED 6:11.91200m - 18.08 - (18.0)
600m - 46.44 - (28.3)
1000m - 1:15.27 - (28.8)
1400m - 1:44.49 - (29.2)
1800m - 2:13.71 - (29.2)
2200m - 2:43.07 - (29.3)
2600m - 3:12.42 - (29.3)
3000m - 3:41.75 - (29.3)
3400m - 4:11.08 - (29.3)
3800m - 4:40.73 - (29.6)
4200m - 5:10.79 - (30.0)
4600m - 5:40.94 - (30.1)
5000m - 6:11.91 - (30.9)
7.45 45
7 46 Moritz  Geisreiter GER GER 6:13.03200m - 18.91 - (18.9)
600m - 47.71 - (28.8)
1000m - 1:16.86 - (29.1)
1400m - 1:46.46 - (29.6)
1800m - 2:16.20 - (29.7)
2200m - 2:45.97 - (29.7)
2600m - 3:15.60 - (29.6)
3000m - 3:45.45 - (29.8)
3400m - 4:14.95 - (29.5)
3800m - 4:44.57 - (29.6)
4200m - 5:14.10 - (29.5)
4600m - 5:43.77 - (29.6)
5000m - 6:13.03 - (29.2)
8.57 40
8 110 Sverre  Lunde Pedersen NOR NOR 6:13.32200m - 18.72 - (18.7)
600m - 47.95 - (29.2)
1000m - 1:17.43 - (29.4)
1400m - 1:47.08 - (29.6)
1800m - 2:16.62 - (29.5)
2200m - 2:46.12 - (29.5)
2600m - 3:15.62 - (29.5)
3000m - 3:45.17 - (29.5)
3400m - 4:14.61 - (29.4)
3800m - 4:44.09 - (29.4)
4200m - 5:13.48 - (29.3)
4600m - 5:43.14 - (29.6)
5000m - 6:13.32 - (30.1)
8.86 35
9 44 Patrick  Beckert GER GER 6:14.21200m - 19.16 - (19.1)
600m - 47.84 - (28.6)
1000m - 1:16.82 - (28.9)
1400m - 1:46.61 - (29.7)
1800m - 2:16.48 - (29.8)
2200m - 2:46.17 - (29.6)
2600m - 3:16.11 - (29.9)
3000m - 3:45.74 - (29.6)
3400m - 4:15.32 - (29.5)
3800m - 4:44.75 - (29.4)
4200m - 5:14.05 - (29.3)
4600m - 5:43.55 - (29.5)
5000m - 6:14.21 - (30.6)
9.75 30
10 7 Bart  Swings BEL BEL 6:14.65200m - 18.65 - (18.6)
600m - 47.46 - (28.8)
1000m - 1:17.03 - (29.5)
1400m - 1:46.44 - (29.4)
1800m - 2:15.66 - (29.2)
2200m - 2:45.32 - (29.6)
2600m - 3:14.99 - (29.6)
3000m - 3:44.61 - (29.6)
3400m - 4:14.34 - (29.7)
3800m - 4:44.27 - (29.9)
4200m - 5:14.32 - (30.0)
4600m - 5:44.42 - (30.1)
5000m - 6:14.65 - (30.2)
10.19 25
11 139 Denis  Yuskov RUS RUS 6:15.26200m - 18.33 - (18.3)
600m - 47.24 - (28.9)
1000m - 1:16.11 - (28.8)
1400m - 1:44.95 - (28.8)
1800m - 2:13.85 - (28.9)
2200m - 2:43.02 - (29.1)
2600m - 3:12.12 - (29.1)
3000m - 3:41.38 - (29.2)
3400m - 4:10.96 - (29.5)
3800m - 4:41.22 - (30.2)
4200m - 5:12.26 - (31.0)
4600m - 5:43.75 - (31.4)
5000m - 6:15.26 - (31.5)
10.80 21
12 106 Håvard  Bøkko NOR NOR 6:20.07200m - 18.77 - (18.7)
600m - 48.04 - (29.2)
1000m - 1:17.95 - (29.9)
1400m - 1:47.58 - (29.6)
1800m - 2:17.36 - (29.7)
2200m - 2:47.18 - (29.8)
2600m - 3:17.14 - (29.9)
3000m - 3:47.14 - (30.0)
3400m - 4:17.32 - (30.1)
3800m - 4:47.64 - (30.3)
4200m - 5:18.34 - (30.7)
4600m - 5:49.09 - (30.7)
5000m - 6:20.07 - (30.9)
15.61 18
13 71 Dmitry  Babenko KAZ KAZ 6:25.27200m - 18.40 - (18.4)
600m - 47.39 - (28.9)
1000m - 1:17.37 - (29.9)
1400m - 1:47.27 - (29.9)
1800m - 2:16.97 - (29.7)
2200m - 2:46.99 - (30.0)
2600m - 3:17.34 - (30.3)
3000m - 3:47.95 - (30.6)
3400m - 4:18.63 - (30.6)
3800m - 4:49.71 - (31.0)
4200m - 5:21.35 - (31.6)
4600m - 5:53.16 - (31.8)
5000m - 6:25.27 - (32.1)
20.81 16
14 49 Robert  Lehmann GER GER 6:25.76200m - 19.02 - (19.0)
600m - 48.67 - (29.6)
1000m - 1:18.44 - (29.7)
1400m - 1:48.40 - (29.9)
1800m - 2:18.32 - (29.9)
2200m - 2:48.41 - (30.0)
2600m - 3:18.74 - (30.3)
3000m - 3:49.35 - (30.6)
3400m - 4:20.14 - (30.7)
3800m - 4:51.66 - (31.5)
4200m - 5:23.32 - (31.6)
4600m - 5:54.67 - (31.3)
5000m - 6:25.76 - (31.0)
21.30 14
15 43 Alexej  Baumgärtner GER GER 6:28.04200m - 19.85 - (19.8)
600m - 49.78 - (29.9)
1000m - 1:19.97 - (30.1)
1400m - 1:50.02 - (30.0)
1800m - 2:20.31 - (30.2)
2200m - 2:50.55 - (30.2)
2600m - 3:21.09 - (30.5)
3000m - 3:51.72 - (30.6)
3400m - 4:22.55 - (30.8)
3800m - 4:53.51 - (30.9)
4200m - 5:24.85 - (31.3)
4600m - 5:56.35 - (31.5)
5000m - 6:28.04 - (31.6)
23.58 12
16 21 Lucas  Makowsky CAN CAN 6:34.72200m - 19.09 - (19.0)
600m - 48.86 - (29.7)
1000m - 1:19.16 - (30.3)
1400m - 1:49.25 - (30.0)
1800m - 2:19.32 - (30.0)
2200m - 2:49.70 - (30.3)
2600m - 3:20.55 - (30.8)
3000m - 3:51.83 - (31.2)
3400m - 4:23.69 - (31.8)
3800m - 4:56.04 - (32.3)
4200m - 5:28.71 - (32.6)
4600m - 6:01.60 - (32.8)
5000m - 6:34.72 - (33.1)
30.26 10